| time (UTC) | temp C | wind direction | speed KPH | gust KPH | rain 1hr cm | rain 24hr cm | rain mn cm | humidity % | barometer mb |
| 20260905061548 | 31 | 0 | 0.0 | 3.2 | 0.00 | 0.00 | 0.00 | 38 | 1009.9 |
| 20260905061024 | 31 | 261 | 1.6 | 3.2 | 0.00 | 0.00 | 0.00 | 37 | 1009.9 |
| 20260905060525 | 32 | 0 | 0.0 | 3.2 | 0.00 | 0.00 | 0.00 | 37 | 1009.9 |
| 20260905060048 | 32 | 240 | 0.0 | 3.2 | 0.00 | 0.00 | 0.00 | 37 | 1009.8 |
| 20260905055524 | 32 | 0 | 0.0 | 3.2 | 0.00 | 0.00 | 0.00 | 36 | 1009.9 |
| 20260905055023 | 32 | 267 | 0.0 | 1.6 | 0.00 | 0.00 | 0.00 | 35 | 1009.8 |
| 20260905054558 | 32 | 267 | 0.0 | 3.2 | 0.00 | 0.00 | 0.00 | 35 | 1009.7 |
| 20260905054026 | 32 | 0 | 0.0 | 3.2 | 0.00 | 0.00 | 0.00 | 35 | 1009.7 |
| 20260905053524 | 32 | 0 | 0.0 | 3.2 | 0.00 | 0.00 | 0.00 | 35 | 1009.7 |
| 20260905053050 | 32 | 265 | 1.6 | 3.2 | 0.00 | 0.00 | 0.00 | 34 | 1009.7 |
| 20260905052525 | 32 | 260 | 0.0 | 3.2 | 0.00 | 0.00 | 0.00 | 34 | 1009.7 |
| 20260905052028 | 33 | 0 | 0.0 | 4.8 | 0.00 | 0.00 | 0.00 | 33 | 1009.6 |
| 20260905051547 | 33 | 262 | 1.6 | 4.8 | 0.00 | 0.00 | 0.00 | 33 | 1009.7 |
| 20260905051024 | 33 | 264 | 1.6 | 6.4 | 0.00 | 0.00 | 0.00 | 33 | 1009.7 |
| 20260905050524 | 33 | 0 | 1.6 | 6.4 | 0.00 | 0.00 | 0.00 | 33 | 1009.7 |
| 20260905050100 | 33 | 269 | 1.6 | 4.8 | 0.00 | 0.00 | 0.00 | 32 | 1009.6 |
| 20260905045524 | 33 | 271 | 1.6 | 4.8 | 0.00 | 0.00 | 0.00 | 32 | 1009.5 |
| 20260905045025 | 33 | 302 | 0.0 | 4.8 | 0.00 | 0.00 | 0.00 | 32 | 1009.5 |
| 20260905044554 | 33 | 246 | 0.0 | 4.8 | 0.00 | 0.00 | 0.00 | 32 | 1009.5 |
| 20260905044023 | 33 | 284 | 1.6 | 4.8 | 0.00 | 0.00 | 0.00 | 31 | 1009.5 |
| 20260905043523 | 33 | 273 | 1.6 | 9.7 | 0.00 | 0.00 | 0.00 | 31 | 1009.5 |
| 20260905043048 | 34 | 279 | 1.6 | 9.7 | 0.00 | 0.00 | 0.00 | 31 | 1009.5 |
| 20260905042525 | 34 | 274 | 1.6 | 11.3 | 0.00 | 0.00 | 0.00 | 30 | 1009.5 |
| 20260905042024 | 34 | 281 | 1.6 | 12.9 | 0.00 | 0.00 | 0.00 | 30 | 1009.5 |
| 20260905041554 | 34 | 296 | 3.2 | 12.9 | 0.00 | 0.00 | 0.00 | 30 | 1009.4 |
| 20260905041025 | 34 | 269 | 3.2 | 11.3 | 0.00 | 0.00 | 0.00 | 30 | 1009.4 |
| 20260905040525 | 35 | 288 | 3.2 | 11.3 | 0.00 | 0.00 | 0.00 | 30 | 1009.4 |
| 20260905040055 | 35 | 240 | 3.2 | 11.3 | 0.00 | 0.00 | 0.00 | 29 | 1009.2 |
| 20260905035524 | 35 | 268 | 4.8 | 14.5 | 0.00 | 0.00 | 0.00 | 29 | 1009.2 |
| 20260905035024 | 35 | 256 | 4.8 | 14.5 | 0.00 | 0.00 | 0.00 | 29 | 1009.1 |
| 20260905034548 | 35 | 288 | 4.8 | 14.5 | 0.00 | 0.00 | 0.00 | 29 | 1009.1 |
| 20260905034024 | 35 | 293 | 4.8 | 19.3 | 0.00 | 0.00 | 0.00 | 30 | 1009.0 |
| 20260905033524 | 35 | 273 | 4.8 | 19.3 | 0.00 | 0.00 | 0.00 | 30 | 1009.0 |
| 20260905033051 | 35 | 267 | 4.8 | 11.3 | 0.00 | 0.00 | 0.00 | 31 | 1008.9 |
| 20260905032525 | 35 | 215 | 1.6 | 6.4 | 0.00 | 0.00 | 0.00 | 32 | 1008.8 |
| 20260905032024 | 35 | 198 | 1.6 | 6.4 | 0.00 | 0.00 | 0.00 | 32 | 1008.8 |
| 20260905031553 | 35 | 278 | 0.0 | 1.6 | 0.00 | 0.00 | 0.00 | 33 | 1008.7 |
| 20260905031026 | 35 | 0 | 0.0 | 0.0 | 0.00 | 0.00 | 0.00 | 33 | 1008.6 |
| 20260905030523 | 35 | 0 | 0.0 | 0.0 | 0.00 | 0.00 | 0.00 | 33 | 1008.5 |
| 20260905030049 | 35 | 0 | 0.0 | 0.0 | 0.00 | 0.00 | 0.00 | 32 | 1008.4 |
| 20260905025522 | 35 | 0 | 0.0 | 0.0 | 0.00 | 0.00 | 0.00 | 32 | 1008.3 |
| 20260905025027 | 35 | 0 | 0.0 | 0.0 | 0.00 | 0.00 | 0.00 | 32 | 1008.2 |
| 20260905024547 | 35 | 0 | 0.0 | 0.0 | 0.00 | 0.00 | 0.00 | 32 | 1008.2 |
| 20260905024027 | 35 | 0 | 0.0 | 0.0 | 0.00 | 0.00 | 0.00 | 32 | 1008.3 |
| 20260905023524 | 35 | 0 | 0.0 | 1.6 | 0.00 | 0.00 | 0.00 | 32 | 1008.3 |
| 20260905023046 | 35 | 0 | 0.0 | 1.6 | 0.00 | 0.00 | 0.00 | 31 | 1008.3 |
| 20260905022528 | 35 | 0 | 0.0 | 1.6 | 0.00 | 0.00 | 0.00 | 31 | 1008.2 |
| 20260905022024 | 36 | 0 | 0.0 | 1.6 | 0.00 | 0.00 | 0.00 | 31 | 1008.1 |
| 20260905021553 | 36 | 0 | 0.0 | 1.6 | 0.00 | 0.00 | 0.00 | 30 | 1008.1 |
| 20260905021027 | 36 | 0 | 0.0 | 1.6 | 0.00 | 0.00 | 0.00 | 30 | 1008.1 |
| 20260905020523 | 36 | 0 | 0.0 | 1.6 | 0.00 | 0.00 | 0.00 | 30 | 1008.1 |
| 20260905020056 | 36 | 0 | 0.0 | 3.2 | 0.00 | 0.00 | 0.00 | 30 | 1008.0 |
| 20260905015524 | 36 | 278 | 0.0 | 4.8 | 0.00 | 0.00 | 0.00 | 30 | 1008.0 |
| 20260905015024 | 36 | 0 | 0.0 | 4.8 | 0.00 | 0.00 | 0.00 | 30 | 1007.9 |
| 20260905014547 | 36 | 284 | 1.6 | 4.8 | 0.00 | 0.00 | 0.00 | 29 | 1008.0 |
| 20260905014027 | 36 | 293 | 0.0 | 4.8 | 0.00 | 0.00 | 0.00 | 29 | 1007.9 |
| 20260905013529 | 36 | 0 | 1.6 | 6.4 | 0.00 | 0.00 | 0.00 | 29 | 1007.9 |
| 20260905013050 | 36 | 278 | 0.0 | 6.4 | 0.00 | 0.00 | 0.00 | 30 | 1007.9 |
| 20260905012527 | 36 | 306 | 1.6 | 11.3 | 0.00 | 0.00 | 0.00 | 29 | 1007.8 |
| 20260905012027 | 36 | 304 | 1.6 | 11.3 | 0.00 | 0.00 | 0.00 | 29 | 1007.8 |
| 20260905011548 | 37 | 226 | 3.2 | 12.9 | 0.00 | 0.00 | 0.00 | 29 | 1007.7 |
| 20260905011028 | 37 | 287 | 3.2 | 12.9 | 0.00 | 0.00 | 0.00 | 29 | 1007.7 |
| 20260905010526 | 37 | 293 | 3.2 | 9.7 | 0.00 | 0.00 | 0.00 | 29 | 1007.8 |
| 20260905005525 | 37 | 321 | 0.0 | 8.0 | 0.00 | 0.00 | 0.00 | 28 | 1007.8 |
| 20260905005025 | 37 | 0 | 3.2 | 8.0 | 0.00 | 0.00 | 0.00 | 28 | 1007.9 |
| 20260905004547 | 37 | 268 | 1.6 | 9.7 | 0.00 | 0.00 | 0.00 | 28 | 1007.9 |
| 20260905004026 | 37 | 169 | 3.2 | 11.3 | 0.00 | 0.00 | 0.00 | 28 | 1007.9 |
| 20260905003527 | 37 | 250 | 4.8 | 14.5 | 0.00 | 0.00 | 0.00 | 28 | 1007.8 |
| 20260905003044 | 37 | 192 | 4.8 | 14.5 | 0.00 | 0.00 | 0.00 | 27 | 1007.8 |
| 20260905002523 | 38 | 231 | 1.6 | 12.9 | 0.00 | 0.00 | 0.00 | 27 | 1007.8 |
| 20260905002027 | 38 | 276 | 3.2 | 11.3 | 0.00 | 0.00 | 0.00 | 27 | 1007.8 |
| 20260905001548 | 38 | 313 | 3.2 | 14.5 | 0.00 | 0.00 | 0.00 | 27 | 1007.7 |
| 20260905001024 | 38 | 208 | 4.8 | 14.5 | 0.00 | 0.00 | 0.00 | 27 | 1007.9 |
| 20260905000526 | 38 | 0 | 4.8 | 14.5 | 0.00 | 0.00 | 0.00 | 27 | 1007.9 |
| 20260905000048 | 38 | 0 | 0.0 | 4.8 | 0.00 | 0.00 | 0.00 | 29 | 1008.0 |
| 20260904235523 | 38 | 190 | 1.6 | 8.0 | 0.00 | 0.00 | 0.00 | 29 | 1008.0 |
| 20260904235024 | 37 | 153 | 3.2 | 12.9 | 0.00 | 0.00 | 0.00 | 29 | 1007.9 |
| 20260904234551 | 37 | 150 | 3.2 | 19.3 | 0.00 | 0.00 | 0.00 | 29 | 1007.9 |
| 20260904234024 | 38 | 93 | 8.0 | 19.3 | 0.00 | 0.00 | 0.00 | 29 | 1008.0 |
| 20260904233524 | 38 | 171 | 3.2 | 11.3 | 0.00 | 0.00 | 0.00 | 29 | 1008.0 |
| 20260904233045 | 38 | 180 | 3.2 | 11.3 | 0.00 | 0.00 | 0.00 | 29 | 1008.0 |
| 20260904232526 | 38 | 203 | 3.2 | 11.3 | 0.00 | 0.00 | 0.00 | 29 | 1007.9 |
| 20260904232026 | 38 | 144 | 1.6 | 9.7 | 0.00 | 0.00 | 0.00 | 29 | 1008.0 |
| 20260904231542 | 37 | 130 | 0.0 | 12.9 | 0.00 | 0.00 | 0.00 | 29 | 1008.0 |
| 20260904231023 | 37 | 163 | 4.8 | 12.9 | 0.00 | 0.00 | 0.00 | 30 | 1008.1 |
| 20260904230524 | 37 | 149 | 3.2 | 17.7 | 0.00 | 0.00 | 0.00 | 30 | 1008.1 |
| 20260904225529 | 37 | 173 | 4.8 | 14.5 | 0.00 | 0.00 | 0.00 | 30 | 1008.1 |
| 20260904225025 | 38 | 274 | 4.8 | 12.9 | 0.00 | 0.00 | 0.00 | 29 | 1008.2 |
| 20260904224604 | 38 | 248 | 1.6 | 11.3 | 0.00 | 0.00 | 0.00 | 29 | 1008.3 |
| 20260904224028 | 38 | 306 | 1.6 | 11.3 | 0.00 | 0.00 | 0.00 | 28 | 1008.4 |
| 20260904223526 | 38 | 0 | 0.0 | 16.1 | 0.00 | 0.00 | 0.00 | 29 | 1008.5 |
| 20260904223047 | 37 | 250 | 6.4 | 17.7 | 0.00 | 0.00 | 0.00 | 30 | 1008.6 |
| 20260904222524 | 37 | 208 | 8.0 | 17.7 | 0.00 | 0.00 | 0.00 | 30 | 1008.5 |
| 20260904222025 | 38 | 190 | 3.2 | 16.1 | 0.00 | 0.00 | 0.00 | 31 | 1008.5 |
| 20260904221546 | 38 | 109 | 8.0 | 16.1 | 0.00 | 0.00 | 0.00 | 31 | 1008.6 |
| 20260904221023 | 38 | 0 | 1.6 | 9.7 | 0.00 | 0.00 | 0.00 | 30 | 1008.6 |
| 20260904220524 | 38 | 0 | 0.0 | 16.1 | 0.00 | 0.00 | 0.00 | 30 | 1008.7 |
| 20260904220054 | 38 | 147 | 4.8 | 16.1 | 0.00 | 0.00 | 0.00 | 30 | 1008.7 |
| 20260904215528 | 38 | 207 | 4.8 | 22.5 | 0.00 | 0.00 | 0.00 | 30 | 1008.8 |
| 20260904215027 | 38 | 171 | 8.0 | 22.5 | 0.00 | 0.00 | 0.00 | 30 | 1008.9 |
| 20260904214554 | 38 | 140 | 4.8 | 17.7 | 0.00 | 0.00 | 0.00 | 31 | 1008.9 |
| 20260904214028 | 38 | 5 | 3.2 | 17.7 | 0.00 | 0.00 | 0.00 | 29 | 1009.1 |
| 20260904213525 | 38 | 205 | 4.8 | 16.1 | 0.00 | 0.00 | 0.00 | 29 | 1009.2 |
| 20260904213053 | 38 | 186 | 3.2 | 16.1 | 0.00 | 0.00 | 0.00 | 29 | 1009.2 |
| 20260904212527 | 38 | 155 | 6.4 | 16.1 | 0.00 | 0.00 | 0.00 | 30 | 1009.3 |
| 20260904212026 | 38 | 185 | 1.6 | 12.9 | 0.00 | 0.00 | 0.00 | 31 | 1009.5 |
| 20260904211555 | 38 | 107 | 3.2 | 14.5 | 0.00 | 0.00 | 0.00 | 31 | 1009.5 |
| 20260904211024 | 38 | 130 | 4.8 | 16.1 | 0.00 | 0.00 | 0.00 | 30 | 1009.6 |
| 20260904210526 | 38 | 200 | 4.8 | 16.1 | 0.00 | 0.00 | 0.00 | 31 | 1009.7 |
| 20260904210053 | 38 | 170 | 1.6 | 11.3 | 0.00 | 0.00 | 0.00 | 32 | 1009.7 |
| 20260904205526 | 38 | 300 | 1.6 | 11.3 | 0.00 | 0.00 | 0.00 | 31 | 1009.6 |
| 20260904205025 | 37 | 231 | 3.2 | 11.3 | 0.00 | 0.00 | 0.00 | 31 | 1009.7 |
| 20260904204546 | 37 | 329 | 3.2 | 14.5 | 0.00 | 0.00 | 0.00 | 32 | 1009.7 |
| 20260904204029 | 37 | 55 | 4.8 | 14.5 | 0.00 | 0.00 | 0.00 | 31 | 1009.8 |
| 20260904203523 | 37 | 152 | 1.6 | 8.0 | 0.00 | 0.00 | 0.00 | 35 | 1009.9 |
| 20260904203050 | 37 | 320 | 1.6 | 14.5 | 0.00 | 0.00 | 0.00 | 36 | 1010.0 |
| 20260904202525 | 37 | 272 | 0.0 | 17.7 | 0.00 | 0.00 | 0.00 | 36 | 1010.1 |
| 20260904202025 | 37 | 175 | 6.4 | 17.7 | 0.00 | 0.00 | 0.00 | 36 | 1010.2 |
| 20260904201550 | 36 | 199 | 3.2 | 14.5 | 0.00 | 0.00 | 0.00 | 37 | 1010.1 |
| 20260904201024 | 36 | 0 | 1.6 | 14.5 | 0.00 | 0.00 | 0.00 | 37 | 1010.3 |
| 20260904200524 | 37 | 186 | 3.2 | 16.1 | 0.00 | 0.00 | 0.00 | 36 | 1010.4 |
| 20260904200047 | 37 | 216 | 4.8 | 16.1 | 0.00 | 0.00 | 0.00 | 35 | 1010.5 |
| 20260904195525 | 37 | 209 | 6.4 | 16.1 | 0.00 | 0.00 | 0.00 | 36 | 1010.6 |
| 20260904195026 | 36 | 242 | 4.8 | 20.9 | 0.00 | 0.00 | 0.00 | 35 | 1010.6 |
| 20260904194545 | 36 | 265 | 6.4 | 20.9 | 0.00 | 0.00 | 0.00 | 36 | 1010.7 |
| 20260904194024 | 36 | 200 | 6.4 | 20.9 | 0.00 | 0.00 | 0.00 | 37 | 1010.7 |
| 20260904193524 | 36 | 281 | 3.2 | 12.9 | 0.00 | 0.00 | 0.00 | 38 | 1010.8 |
| 20260904193052 | 36 | 255 | 3.2 | 16.1 | 0.00 | 0.00 | 0.00 | 38 | 1010.9 |
| 20260904192527 | 36 | 143 | 4.8 | 16.1 | 0.00 | 0.00 | 0.00 | 40 | 1010.9 |
| 20260904192025 | 36 | 131 | 4.8 | 16.1 | 0.00 | 0.00 | 0.00 | 40 | 1011.1 |
| 20260904191546 | 36 | 92 | 3.2 | 16.1 | 0.00 | 0.00 | 0.00 | 40 | 1011.1 |
| 20260904191024 | 36 | 178 | 4.8 | 16.1 | 0.00 | 0.00 | 0.00 | 39 | 1011.2 |
| 20260904190523 | 36 | 251 | 3.2 | 14.5 | 0.00 | 0.00 | 0.00 | 39 | 1011.3 |
| 20260904190045 | 35 | 192 | 4.8 | 16.1 | 0.00 | 0.00 | 0.00 | 39 | 1011.4 |
| 20260904185525 | 36 | 162 | 4.8 | 16.1 | 0.00 | 0.00 | 0.00 | 39 | 1011.4 |
| 20260904185024 | 35 | 202 | 0.0 | 19.3 | 0.00 | 0.00 | 0.00 | 41 | 1011.5 |
| 20260904184545 | 35 | 185 | 4.8 | 24.1 | 0.00 | 0.00 | 0.00 | 40 | 1011.6 |
| 20260904184026 | 35 | 204 | 6.4 | 24.1 | 0.00 | 0.00 | 0.00 | 40 | 1011.6 |
| 20260904183524 | 35 | 175 | 4.8 | 16.1 | 0.00 | 0.00 | 0.00 | 40 | 1011.7 |
| 20260904183051 | 35 | 163 | 3.2 | 16.1 | 0.00 | 0.00 | 0.00 | 41 | 1011.7 |
| 20260904182525 | 35 | 140 | 6.4 | 16.1 | 0.00 | 0.00 | 0.00 | 42 | 1011.8 |
| 20260904182028 | 35 | 162 | 3.2 | 17.7 | 0.00 | 0.00 | 0.00 | 41 | 1011.9 |
| 20260904181547 | 35 | 223 | 4.8 | 19.3 | 0.00 | 0.00 | 0.00 | 41 | 1012.0 |
| 20260904181028 | 35 | 182 | 6.4 | 19.3 | 0.00 | 0.00 | 0.00 | 42 | 1012.1 |
| 20260904180527 | 35 | 169 | 8.0 | 19.3 | 0.00 | 0.00 | 0.00 | 42 | 1012.1 |
| 20260904180047 | 35 | 198 | 6.4 | 19.3 | 0.00 | 0.00 | 0.00 | 42 | 1012.1 |
| 20260904175525 | 34 | 196 | 8.0 | 19.3 | 0.00 | 0.00 | 0.00 | 43 | 1012.1 |
| 20260904175025 | 34 | 132 | 6.4 | 19.3 | 0.00 | 0.00 | 0.00 | 43 | 1012.1 |
| 20260904174554 | 34 | 191 | 9.7 | 22.5 | 0.00 | 0.00 | 0.00 | 43 | 1012.2 |
| 20260904174026 | 34 | 0 | 6.4 | 22.5 | 0.00 | 0.00 | 0.00 | 44 | 1012.1 |
| 20260904173523 | 33 | 186 | 8.0 | 22.5 | 0.00 | 0.00 | 0.00 | 45 | 1012.1 |
| 20260904173053 | 33 | 159 | 6.4 | 17.7 | 0.00 | 0.00 | 0.00 | 46 | 1012.2 |
| 20260904172528 | 33 | 207 | 9.7 | 17.7 | 0.00 | 0.00 | 0.00 | 46 | 1012.2 |
| 20260904172026 | 33 | 194 | 3.2 | 16.1 | 0.00 | 0.00 | 0.00 | 51 | 1012.2 |
| 20260904171552 | 33 | 173 | 6.4 | 16.1 | 0.00 | 0.00 | 0.00 | 51 | 1012.2 |
| 20260904171025 | 33 | 132 | 3.2 | 17.7 | 0.00 | 0.00 | 0.00 | 51 | 1012.2 |
| 20260904170524 | 33 | 108 | 6.4 | 24.1 | 0.00 | 0.00 | 0.00 | 50 | 1012.2 |
| 20260904170046 | 33 | 162 | 6.4 | 24.1 | 0.00 | 0.00 | 0.00 | 49 | 1012.2 |
| 20260904165528 | 33 | 172 | 9.7 | 24.1 | 0.00 | 0.00 | 0.00 | 49 | 1012.2 |
| 20260904165026 | 33 | 155 | 6.4 | 19.3 | 0.00 | 0.00 | 0.00 | 50 | 1012.1 |
| 20260904164557 | 32 | 165 | 8.0 | 19.3 | 0.00 | 0.00 | 0.00 | 51 | 1012.1 |
| 20260904164024 | 32 | 175 | 8.0 | 17.7 | 0.00 | 0.00 | 0.00 | 52 | 1012.1 |
| 20260904163531 | 32 | 153 | 4.8 | 22.5 | 0.00 | 0.00 | 0.00 | 52 | 1012.0 |
| 20260904163048 | 32 | 200 | 8.0 | 22.5 | 0.00 | 0.00 | 0.00 | 53 | 1012.0 |
| 20260904162527 | 32 | 128 | 8.0 | 20.9 | 0.00 | 0.00 | 0.00 | 52 | 1011.9 |
| 20260904162026 | 32 | 146 | 4.8 | 20.9 | 0.00 | 0.00 | 0.00 | 53 | 1011.9 |
| 20260904161547 | 32 | 145 | 4.8 | 22.5 | 0.00 | 0.00 | 0.00 | 54 | 1011.9 |
| 20260904161028 | 32 | 182 | 4.8 | 22.5 | 0.00 | 0.00 | 0.00 | 55 | 1012.0 |
| 20260904160527 | 31 | 155 | 6.4 | 17.7 | 0.00 | 0.00 | 0.00 | 55 | 1011.9 |
| 20260904160052 | 31 | 135 | 8.0 | 16.1 | 0.00 | 0.00 | 0.00 | 55 | 1012.0 |
| 20260904155525 | 31 | 230 | 6.4 | 16.1 | 0.00 | 0.00 | 0.00 | 56 | 1011.9 |
| 20260904155024 | 31 | 166 | 8.0 | 16.1 | 0.00 | 0.00 | 0.00 | 55 | 1011.8 |
| 20260904154545 | 31 | 135 | 3.2 | 17.7 | 0.00 | 0.00 | 0.00 | 57 | 1011.8 |
| 20260904154029 | 31 | 146 | 6.4 | 17.7 | 0.00 | 0.00 | 0.00 | 57 | 1011.7 |
| 20260904153526 | 31 | 159 | 6.4 | 17.7 | 0.00 | 0.00 | 0.00 | 58 | 1011.7 |
| 20260904153047 | 31 | 0 | 6.4 | 17.7 | 0.00 | 0.00 | 0.00 | 58 | 1011.6 |
| 20260904152528 | 31 | 148 | 6.4 | 19.3 | 0.00 | 0.00 | 0.00 | 58 | 1011.6 |
| 20260904152024 | 30 | 163 | 8.0 | 19.3 | 0.00 | 0.00 | 0.00 | 59 | 1011.6 |
| 20260904151546 | 30 | 200 | 6.4 | 22.5 | 0.00 | 0.00 | 0.00 | 59 | 1011.6 |
| 20260904151025 | 30 | 152 | 8.0 | 22.5 | 0.00 | 0.00 | 0.00 | 60 | 1011.6 |
| 20260904150525 | 30 | 216 | 6.4 | 17.7 | 0.00 | 0.00 | 0.00 | 60 | 1011.6 |
| 20260904150047 | 30 | 138 | 6.4 | 20.9 | 0.00 | 0.00 | 0.00 | 60 | 1011.7 |
| 20260904145527 | 30 | 128 | 8.0 | 20.9 | 0.00 | 0.00 | 0.00 | 61 | 1011.6 |
| 20260904145022 | 30 | 161 | 4.8 | 14.5 | 0.00 | 0.00 | 0.00 | 62 | 1011.6 |
| 20260904144548 | 30 | 161 | 4.8 | 14.5 | 0.00 | 0.00 | 0.00 | 62 | 1011.6 |
| 20260904144027 | 29 | 198 | 4.8 | 14.5 | 0.00 | 0.00 | 0.00 | 63 | 1011.6 |
| 20260904143523 | 29 | 174 | 4.8 | 14.5 | 0.00 | 0.00 | 0.00 | 63 | 1011.5 |
| 20260904143045 | 29 | 130 | 3.2 | 12.9 | 0.00 | 0.00 | 0.00 | 64 | 1011.4 |
| 20260904142525 | 28 | 158 | 3.2 | 14.5 | 0.00 | 0.00 | 0.00 | 64 | 1011.4 |
| 20260904142026 | 28 | 145 | 4.8 | 14.5 | 0.00 | 0.00 | 0.00 | 65 | 1011.3 |
| 20260904141546 | 28 | 174 | 4.8 | 14.5 | 0.00 | 0.00 | 0.00 | 65 | 1011.3 |
| 20260904141025 | 28 | 173 | 4.8 | 14.5 | 0.00 | 0.00 | 0.00 | 66 | 1011.3 |
| 20260904140524 | 28 | 169 | 6.4 | 16.1 | 0.00 | 0.00 | 0.00 | 66 | 1011.1 |
| 20260904140103 | 28 | 153 | 4.8 | 19.3 | 0.00 | 0.00 | 0.00 | 67 | 1011.1 |
| 20260904135528 | 28 | 159 | 8.0 | 19.3 | 0.00 | 0.00 | 0.00 | 67 | 1011.1 |
| 20260904135030 | 28 | 160 | 8.0 | 19.3 | 0.00 | 0.00 | 0.00 | 67 | 1010.9 |
| 20260904134559 | 27 | 123 | 8.0 | 19.3 | 0.00 | 0.00 | 0.00 | 67 | 1010.9 |
| 20260904134026 | 27 | 152 | 4.8 | 17.7 | 0.00 | 0.00 | 0.00 | 67 | 1010.8 |
| 20260904133524 | 27 | 191 | 6.4 | 16.1 | 0.00 | 0.00 | 0.00 | 68 | 1010.7 |
| 20260904133053 | 27 | 144 | 6.4 | 14.5 | 0.00 | 0.00 | 0.00 | 68 | 1010.6 |
| 20260904132528 | 27 | 152 | 4.8 | 14.5 | 0.00 | 0.00 | 0.00 | 68 | 1010.6 |
| 20260904132027 | 27 | 163 | 6.4 | 16.1 | 0.00 | 0.00 | 0.00 | 68 | 1010.6 |
| 20260904131547 | 27 | 153 | 8.0 | 19.3 | 0.00 | 0.00 | 0.00 | 68 | 1010.4 |
| 20260904131026 | 27 | 156 | 6.4 | 19.3 | 0.00 | 0.00 | 0.00 | 68 | 1010.4 |
| 20260904130524 | 27 | 137 | 6.4 | 19.3 | 0.00 | 0.00 | 0.00 | 68 | 1010.3 |
| 20260904130055 | 27 | 142 | 6.4 | 16.1 | 0.00 | 0.00 | 0.00 | 67 | 1010.2 |
| 20260904125528 | 27 | 162 | 6.4 | 16.1 | 0.00 | 0.00 | 0.00 | 67 | 1010.2 |
| 20260904125024 | 27 | 192 | 8.0 | 16.1 | 0.00 | 0.00 | 0.00 | 67 | 1010.1 |
| 20260904124555 | 27 | 127 | 8.0 | 19.3 | 0.00 | 0.00 | 0.00 | 67 | 1010.1 |
| 20260904124025 | 27 | 150 | 6.4 | 19.3 | 0.00 | 0.00 | 0.00 | 67 | 1009.9 |
| 20260904123528 | 27 | 164 | 6.4 | 17.7 | 0.00 | 0.00 | 0.00 | 66 | 1009.9 |
| 20260904123047 | 27 | 189 | 4.8 | 17.7 | 0.00 | 0.00 | 0.00 | 66 | 1009.9 |
| 20260904122524 | 27 | 113 | 6.4 | 17.7 | 0.00 | 0.00 | 0.00 | 66 | 1009.8 |
| 20260904122028 | 27 | 117 | 8.0 | 17.7 | 0.00 | 0.00 | 0.00 | 66 | 1009.8 |
| 20260904121545 | 28 | 159 | 4.8 | 14.5 | 0.00 | 0.00 | 0.00 | 66 | 1009.8 |
| 20260904121024 | 28 | 137 | 6.4 | 14.5 | 0.00 | 0.00 | 0.00 | 65 | 1009.7 |
| 20260904120525 | 28 | 136 | 4.8 | 16.1 | 0.00 | 0.00 | 0.00 | 65 | 1009.7 |
| 20260904120055 | 28 | 158 | 6.4 | 17.7 | 0.00 | 0.00 | 0.00 | 65 | 1009.6 |
| 20260904115525 | 28 | 147 | 6.4 | 19.3 | 0.00 | 0.00 | 0.00 | 65 | 1009.7 |
| 20260904115026 | 28 | 157 | 4.8 | 19.3 | 0.00 | 0.00 | 0.00 | 64 | 1009.7 |
| 20260904114547 | 28 | 148 | 6.4 | 17.7 | 0.00 | 0.00 | 0.00 | 64 | 1009.7 |
| 20260904114026 | 28 | 137 | 4.8 | 16.1 | 0.00 | 0.00 | 0.00 | 63 | 1009.6 |
| 20260904113524 | 28 | 139 | 6.4 | 16.1 | 0.00 | 0.00 | 0.00 | 63 | 1009.6 |
| 20260904113051 | 28 | 168 | 4.8 | 16.1 | 0.00 | 0.00 | 0.00 | 63 | 1009.6 |
| 20260904112527 | 28 | 128 | 4.8 | 16.1 | 0.00 | 0.00 | 0.00 | 62 | 1009.5 |
| 20260904112025 | 28 | 118 | 4.8 | 14.5 | 0.00 | 0.00 | 0.00 | 63 | 1009.5 |
| 20260904111545 | 28 | 94 | 3.2 | 11.3 | 0.00 | 0.00 | 0.00 | 63 | 1009.5 |
| 20260904111024 | 28 | 152 | 4.8 | 12.9 | 0.00 | 0.00 | 0.00 | 63 | 1009.6 |
| 20260904110525 | 28 | 154 | 4.8 | 12.9 | 0.00 | 0.00 | 0.00 | 62 | 1009.6 |
| 20260904110052 | 28 | 136 | 3.2 | 6.4 | 0.00 | 0.00 | 0.00 | 61 | 1009.7 |
| 20260904105526 | 28 | 94 | 3.2 | 6.4 | 0.00 | 0.00 | 0.00 | 60 | 1009.7 |
| 20260904105027 | 29 | 96 | 0.0 | 11.3 | 0.00 | 0.00 | 0.00 | 60 | 1009.5 |
| 20260904104546 | 29 | 148 | 1.6 | 11.3 | 0.00 | 0.00 | 0.00 | 59 | 1009.6 |
| 20260904104028 | 29 | 0 | 1.6 | 9.7 | 0.00 | 0.00 | 0.00 | 59 | 1009.5 |
| 20260904103524 | 29 | 0 | 1.6 | 12.9 | 0.00 | 0.00 | 0.00 | 58 | 1009.4 |
| 20260904103047 | 29 | 152 | 3.2 | 12.9 | 0.00 | 0.00 | 0.00 | 58 | 1009.4 |
| 20260904102526 | 29 | 0 | 3.2 | 12.9 | 0.00 | 0.00 | 0.00 | 58 | 1009.4 |
| 20260904102024 | 29 | 195 | 4.8 | 12.9 | 0.00 | 0.00 | 0.00 | 58 | 1009.2 |
| 20260904101551 | 29 | 194 | 3.2 | 12.9 | 0.00 | 0.00 | 0.00 | 58 | 1009.2 |
| 20260904101026 | 29 | 188 | 4.8 | 14.5 | 0.00 | 0.00 | 0.00 | 58 | 1009.2 |
| 20260904100525 | 29 | 177 | 4.8 | 14.5 | 0.00 | 0.00 | 0.00 | 58 | 1009.1 |
| 20260904100045 | 29 | 152 | 4.8 | 12.9 | 0.00 | 0.00 | 0.00 | 58 | 1009.1 |
| 20260904095615 | 29 | 178 | 4.8 | 12.9 | 0.00 | 0.00 | 0.00 | 58 | 1009.2 |
| 20260904095024 | 29 | 135 | 3.2 | 11.3 | 0.00 | 0.00 | 0.00 | 58 | 1009.1 |
| 20260904094546 | 29 | 168 | 4.8 | 12.9 | 0.00 | 0.00 | 0.00 | 58 | 1009.1 |
| 20260904094024 | 29 | 140 | 4.8 | 12.9 | 0.00 | 0.00 | 0.00 | 58 | 1009.2 |
| 20260904093524 | 29 | 140 | 3.2 | 11.3 | 0.00 | 0.00 | 0.00 | 58 | 1009.2 |
| 20260904093056 | 29 | 136 | 3.2 | 11.3 | 0.00 | 0.00 | 0.00 | 57 | 1009.2 |
| 20260904092526 | 30 | 132 | 3.2 | 12.9 | 0.00 | 0.00 | 0.00 | 57 | 1009.1 |
| 20260904092024 | 30 | 186 | 4.8 | 16.1 | 0.00 | 0.00 | 0.00 | 56 | 1009.1 |
| 20260904091550 | 30 | 199 | 4.8 | 16.1 | 0.00 | 0.00 | 0.00 | 57 | 1009.1 |
| 20260904091026 | 30 | 169 | 3.2 | 9.7 | 0.00 | 0.00 | 0.00 | 56 | 1009.1 |
| 20260904090527 | 30 | 208 | 4.8 | 11.3 | 0.00 | 0.00 | 0.00 | 56 | 1009.1 |
| 20260904090049 | 30 | 122 | 1.6 | 12.9 | 0.00 | 0.00 | 0.00 | 56 | 1009.0 |
| 20260904085526 | 29 | 183 | 4.8 | 12.9 | 0.00 | 0.00 | 0.00 | 57 | 1009.1 |
| 20260904085025 | 29 | 150 | 4.8 | 12.9 | 0.00 | 0.00 | 0.00 | 57 | 1009.1 |
| 20260904084546 | 29 | 113 | 3.2 | 9.7 | 0.00 | 0.00 | 0.00 | 57 | 1009.0 |
| 20260904084028 | 30 | 142 | 3.2 | 9.7 | 0.00 | 0.00 | 0.00 | 57 | 1009.0 |
| 20260904083525 | 30 | 114 | 3.2 | 12.9 | 0.00 | 0.00 | 0.00 | 56 | 1009.0 |
| 20260904083053 | 30 | 115 | 3.2 | 12.9 | 0.00 | 0.00 | 0.00 | 55 | 1009.0 |
| 20260904082527 | 30 | 146 | 3.2 | 9.7 | 0.00 | 0.00 | 0.00 | 54 | 1009.0 |
| 20260904082024 | 30 | 146 | 3.2 | 9.7 | 0.00 | 0.00 | 0.00 | 54 | 1009.1 |
| 20260904081547 | 30 | 0 | 3.2 | 14.5 | 0.00 | 0.00 | 0.00 | 54 | 1009.0 |
| 20260904081024 | 30 | 164 | 4.8 | 14.5 | 0.00 | 0.00 | 0.00 | 53 | 1009.1 |
| 20260904080524 | 30 | 165 | 6.4 | 14.5 | 0.00 | 0.00 | 0.00 | 53 | 1009.1 |
| 20260904080049 | 30 | 191 | 3.2 | 14.5 | 0.00 | 0.00 | 0.00 | 53 | 1009.0 |
| 20260904075525 | 31 | 139 | 4.8 | 14.5 | 0.00 | 0.00 | 0.00 | 52 | 1009.0 |
| 20260904075023 | 31 | 163 | 4.8 | 11.3 | 0.00 | 0.00 | 0.00 | 52 | 1009.0 |
| 20260904074601 | 31 | 197 | 3.2 | 16.1 | 0.00 | 0.00 | 0.00 | 52 | 1009.0 |
| 20260904074028 | 31 | 177 | 4.8 | 16.1 | 0.00 | 0.00 | 0.00 | 52 | 1009.0 |
| 20260904073528 | 31 | 196 | 6.4 | 14.5 | 0.00 | 0.00 | 0.00 | 52 | 1009.0 |
| 20260904073057 | 31 | 178 | 6.4 | 17.7 | 0.00 | 0.00 | 0.00 | 52 | 1008.9 |
| 20260904072525 | 31 | 192 | 4.8 | 17.7 | 0.00 | 0.00 | 0.00 | 52 | 1008.9 |
| 20260904072026 | 31 | 167 | 6.4 | 17.7 | 0.00 | 0.00 | 0.00 | 52 | 1008.9 |
| 20260904071547 | 31 | 203 | 4.8 | 19.3 | 0.00 | 0.00 | 0.00 | 52 | 1008.9 |
| 20260904071024 | 31 | 190 | 6.4 | 19.3 | 0.00 | 0.00 | 0.00 | 52 | 1008.9 |
| 20260904070526 | 31 | 152 | 4.8 | 17.7 | 0.00 | 0.00 | 0.00 | 52 | 1008.8 |
| 20260904070045 | 31 | 198 | 4.8 | 19.3 | 0.00 | 0.00 | 0.00 | 52 | 1008.8 |
| 20260904065526 | 31 | 182 | 4.8 | 19.3 | 0.00 | 0.00 | 0.00 | 52 | 1008.8 |
| 20260904065023 | 31 | 171 | 6.4 | 17.7 | 0.00 | 0.00 | 0.00 | 52 | 1008.8 |
| 20260904064544 | 31 | 241 | 6.4 | 17.7 | 0.00 | 0.00 | 0.00 | 52 | 1008.6 |
| 20260904064024 | 31 | 194 | 4.8 | 17.7 | 0.00 | 0.00 | 0.00 | 52 | 1008.6 |
| 20260904063523 | 30 | 189 | 3.2 | 17.7 | 0.00 | 0.00 | 0.00 | 53 | 1008.6 |
| 20260904063058 | 30 | 203 | 6.4 | 17.7 | 0.00 | 0.00 | 0.00 | 54 | 1008.6 |
| 20260904062525 | 30 | 192 | 3.2 | 12.9 | 0.00 | 0.00 | 0.00 | 54 | 1008.6 |
| 20260904062025 | 30 | 194 | 3.2 | 14.5 | 0.00 | 0.00 | 0.00 | 54 | 1008.5 |